STARLINK-1504, 45746

Orbit data source: Space-Track

STARLINK-1504, 45746 is a payload satellite owned by SpaceX/Seattle (US) in LEO that was launched on Sat, 13 Jun 2020 UTC via an FALCON 9 launch vehicle from the Air Force Eastern Test Range (AFETR). Payload-class satellites include a variety of spacecraft equipped with specific instruments for various scientific and technological missions. These include communications satellites like Starlink; space stations such as the ISS; scientific satellites like the Hubble; Earth observation satellites from companies like Planet Labs, Umbra, and HawkEye 360; GPS; miniature CubeSats for education and research; and military/defense satellites.

Loading next visibility...
Identifier
45746, 2020-038S
Orbit
LEO
Country
Flag of USUS
Related business
Manufacturer
SpaceX/Seattle
Mission
Partially operational Commercial Communications
Bus & Motor
STARLINK, Unknown motor
Mass
260 kg wet, ~248 kg dry
Launch date (UTC)
2020-06-13 (6 years ago)
Launch vehicle
FALCON 9
Launch site
Air Force Eastern Test Range (AFETR)
Object type
Payload
Rocket body
Debris
Shape & HBR
Box + 1 Pan, 10.1 m
Radar Cross Section
13.562 m², Large (>1 m²)

Expand to show TLE details & history
Last TLE update: 1 day ago

TLE from 1 day ago
0 STARLINK-1504
1 45746U 20038S   26254.48520249  .00036960  00000-0  35754-3 0  9993
2 45746  53.0175 317.3668 0002827  47.4059 312.7194 15.66076968346500
Epoch: 2026-09-11T11:38Z
TLE epoch observation values (Epoch: 2026-09-11T11:38:41.495Z)
Latitude
0.00003°
Longitude
152.18605°
Altitude
369.747 km
Speed
7.69 km/s
True Right ascension
21h 09m 28s
True Declination
0° 00' 00"
Sunlit
Object was in full shadow at epoch
Visualization orbit readout
Latitude
Unknown
Longitude
Unknown
Altitude
Unknown
Speed
Unknown
Apparent Right ascension
Unknown
Apparent Declination
Unknown
Sunlit
N/A
Visualization observer readout
Local Sidereal Time
09:39:55
Azimuth
Unknown
Elevation
Unknown
Doppler factor
Unknown
Orbital elements
Apogee altitude
372.335 km
Perigee altitude
368.519 km
Semi-major axis
6,748.564 km
Eccentricity
0.00028
Inclination
53.0175°
RAAN
317.3668°
Arg. of periapsis
47.4059°
True anomaly
312.69559°
Mean anomaly
312.7194°
Eccentric anomaly
312.7075°
Mean motion
3.91495 °/min
Orbital period
91.96 mins
BSTAR
0.00035754
Loading maneuver chart data...
Computing Atmospheric mass density...

Documentation

Showing up to 5 results
|